Weather History for Wilmington, NC

Change the Weather History Date:

Saturday, March 15, 2014

  Actual Average Record
Temperature  
Mean Temperature 64 °F 55 °F  
Max Temperature 76 °F 66 °F 88 °F (1967)
Min Temperature 51 °F 44 °F 22 °F (1993)
Degree Days  
Heating Degree Days 1 11  
Month to date heating degree days 216 185  
Since 1 July heating degree days 2150 2114  
Cooling Degree Days 0 0  
Month to date cooling degree days 0 0  
Year to date cooling degree days 5 5  
Growing Degree Days 12 (Base 50)    
Moisture  
Dew Point 41 °F    
Average Humidity 49    
Maximum Humidity 77    
Minimum Humidity 21    
Precipitation  
Precipitation 0.00 in 0.14 in 1.49 in (1966)
Month to date precipitation 2.22 2.11  
Year to date precipitation 7.68 9.49  
Snow  
Snow 0.00 in 0.00 in 1.00 in (1934)
Month to date snowfall 0.0 0.1  
Since 1 July snowfall 1.0 1.6  
Snow Depth 0.00 in    
Sea Level Pressure  
Sea Level Pressure 30.06 in    
Wind  
Wind Speed 11 mph (SW)    
Max Wind Speed 24 mph    
Max Gust Speed 32 mph    
Visibility 10 miles    
Events      
T = Trace of Precipitation, MM = Missing Value Source: NWS Daily Summary

Daily Weather History Graph

Daily Weather History Graph

Search for Another Location

Airport:

Trip Planner

Search our weather history database for the weather conditions in past years. The results will help you decide how hot, cold, wet, or windy it might be!

Date:

Astronomy

Mar. 15, 2014 Rise Set
Actual Time 7:22 AM EDT 7:19 PM EDT
Civil Twilight 6:57 AM EDT 7:44 PM EDT
Nautical Twilight 6:28 AM EDT 8:13 PM EDT
Astronomical Twilight 5:58 AM EDT 8:42 PM EDT
Moon 6:37 PM EDT (3/15) 6:31 AM EDT (3/15)
Length of Visible Light 12h 47m
Length of Day
11h 57m
Waxing Gibbous, 99% of the Moon is Illuminated
Mar 15
Waxing Gibbous
Mar 16
Full
Mar 23
Last Quarter
Mar 30
New
Apr 7
First Quarter

Hourly Weather History & Observations

Time (EDT) Temp. Dew Point Humidity Pressure Visibility Wind Dir Wind Speed Gust Speed Precip Events Conditions
12:53 AM 53.1 °F 45.0 °F 74% 30.16 in 10.0 mi SSW 5.8 mph - N/A   Clear
1:53 AM 54.0 °F 46.9 °F 77% 30.15 in 10.0 mi SW 5.8 mph - N/A   Clear
2:53 AM 55.0 °F 46.0 °F 72% 30.13 in 10.0 mi SW 6.9 mph - N/A   Clear
3:53 AM 55.9 °F 45.0 °F 67% 30.10 in 10.0 mi SW 10.4 mph - N/A   Clear
4:53 AM 55.9 °F 46.0 °F 69% 30.09 in 10.0 mi SW 10.4 mph - N/A   Overcast
5:53 AM 55.0 °F 46.0 °F 72% 30.09 in 10.0 mi WSW 6.9 mph - N/A   Clear
6:53 AM 55.0 °F 46.9 °F 74% 30.09 in 10.0 mi SW 8.1 mph - N/A   Mostly Cloudy
7:53 AM 57.0 °F 46.9 °F 69% 30.09 in 10.0 mi WSW 10.4 mph - N/A   Overcast
8:53 AM 57.9 °F 46.0 °F 65% 30.09 in 10.0 mi WSW 12.7 mph - N/A   Overcast
9:53 AM 62.1 °F 46.0 °F 56% 30.10 in 10.0 mi SW 13.8 mph - N/A   Overcast
10:53 AM 66.9 °F 39.9 °F 37% 30.10 in 10.0 mi WSW 16.1 mph 25.3 mph N/A   Clear
11:53 AM 71.1 °F 35.1 °F 27% 30.08 in 10.0 mi WSW 19.6 mph 32.2 mph N/A   Clear
12:53 PM 73.0 °F 36.0 °F 26% 30.06 in 10.0 mi WSW 18.4 mph 26.5 mph N/A   Clear
1:53 PM 73.9 °F 36.0 °F 25% 30.03 in 10.0 mi SW 18.4 mph - N/A   Clear
2:53 PM 75.0 °F 34.0 °F 22% 30.00 in 10.0 mi WSW 21.9 mph 29.9 mph N/A   Clear
3:53 PM 75.0 °F 35.1 °F 23% 29.98 in 10.0 mi SW 19.6 mph 26.5 mph N/A   Clear
4:53 PM 75.0 °F 35.1 °F 23% 29.97 in 10.0 mi West 16.1 mph - N/A   Clear
5:53 PM 71.1 °F 39.9 °F 32% 29.97 in 10.0 mi SSW 12.7 mph - N/A   Clear
6:53 PM 66.9 °F 41.0 °F 39% 29.99 in 10.0 mi SSW 11.5 mph - N/A   Clear
7:53 PM 63.0 °F 37.9 °F 40% 30.02 in 10.0 mi SSW 10.4 mph - N/A   Clear
8:53 PM 60.1 °F 37.9 °F 44% 30.04 in 10.0 mi SSW 5.8 mph - N/A   Clear
9:53 PM 57.0 °F 39.0 °F 51% 30.06 in 10.0 mi Calm Calm - N/A   Clear
10:53 PM 55.9 °F 39.9 °F 55% 30.06 in 10.0 mi Calm Calm - N/A   Clear
11:53 PM 55.0 °F 42.1 °F 62% 30.06 in 10.0 mi Calm Calm - N/A   Clear